sat.trackr.live / text

‹ back to catalog

STARLINK-35532

NORAD 66091 · 2025-236F

PAYLOAD ACTIVE UNKNOWN

§ Identity

Operator
Country
US
Launch date
2025-10-19
Launch site
AFWTR
Launch vehicle
Mass (kg)
RCS (m²)

Purposes: comms

External: N2YO · Heavens-Above · Gunter

§ Orbital elements

Epoch: 2026-09-20T08:15:48.172320Z

Period
93.85 min
Inclination
53.1589°
Eccentricity
0.0001582
Mean motion
15.34398296 rev/d
Perigee alt
461.6 km
Apogee alt
463.8 km
Semi-major
6,840.8 km
B*
2.1141e-4
RAAN
278.5441°
Arg perigee
78.5391°
Mean anomaly
281.5789°
Rev number
5,276

§ Raw data

STARLINK-355321 66091U 25236F   26263.34430755  .00006772  00000+0  21141-3 0  99932 66091  53.1589 278.5441 0001582  78.5391 281.5789 15.34398296 52765

JSON: /api/v1/satellites/66091 · /tle

For live sub-satellite position, see the globe view (requires WebGL).

§ Visibility from observer

Set your observer location to see the next 7 days of passes ≥ 10°. The values pass through the URL so the page stays shareable.

No JS? Fill the form by hand. The geolocation button needs JavaScript.